[[{"header":{"parameterUnit":"m.s-1","parameterCategory":1,"la1":30.2991,"la2":30.254,"lo1":-89.0895,"lo2":-89.0444,"dy":0.0017,"dx":0.0017,"nx":28,"ny":28,"refTime":"2023-10-17T03:00:00:Z","depth":0,"parameterNumber":2,"parameterNumberName":"U-component_of_WINDS"},"data":[0,0,0,0,0,0,0,0,0,0,0,0,0,0,0,0,0,0,0,0,0,0,0,0,0,0,0,0,0,0,0,0,0,0,0,0,0,0,0,0,0,0,0,0,0,0,0,0,0,0,0,0,0,0,0,0,0,0,0.2779,0.2778,0,0.2689,0.2688,0.2687,0.2685,0.2686,0.2687,0.2688,0.2593,0.259,0.2586,0,0,0,0,0,0,0,0,0,0,0,0,0,0.2945,0.2942,0.2779,0.2778,0.2776,0.2689,0.2688,0.2687,0.2685,0.2686,0.2687,0.2689,0.2594,0.259,0.2586,0,0,0,0,0,0,0,0,0,0,0,0,0,0.2866,0.2941,0.2779,0.2765,0.2763,0.2689,0.2688,0.2686,0.2684,0.2686,0.2688,0.2689,0.2596,0.259,0.2585,0.2518,0,0,0.2569,0.2566,0,0,0,0,0,0,0,0,0.287,0.2859,0.2768,0.2766,0.2763,0.27,0.2712,0.263,0.2684,0.2714,0.2688,0.269,0.2627,0.2619,0.2599,0.2514,0.251,0.2568,0.2565,0.2563,0.2561,0,0,0,0,0,0,0,0.2876,0.2863,0.2743,0.2767,0.2764,0.2762,0.2753,0.2696,0.2662,0.2712,0.2711,0.2701,0.2626,0.2604,0.2596,0.2509,0.2568,0.2564,0.256,0.2558,0.2363,0.2362,0,0,0,0,0,0,0.2884,0.2868,0.2746,0.274,0.2822,0.2758,0.2747,0.2718,0.2663,0.2656,0.2699,0.2701,0.2612,0.2603,0.2593,0.251,0.2563,0.2558,0.2555,0.2365,0.2363,0.2361,0,0,0,0,0,0,0.2888,0.2873,0.275,0.2804,0.2788,0.2753,0.2721,0.2716,0.2694,0.2654,0.2647,0.2683,0.2613,0.2601,0.2537,0.2506,0.2555,0.255,0.2368,0.2365,0.2362,0.2344,0,0,0,0,0,0,0.2893,0.2875,0.285,0.2804,0.2785,0.2696,0.2719,0.2713,0.2685,0.2686,0.2637,0.263,0.2613,0.2545,0.2532,0.25,0.2546,0.237,0.2366,0.2363,0.2347,0.234,0.2335,0,0,0,0,0,0.2899,0.2848,0.2848,0.2834,0.2753,0.2694,0.2683,0.2666,0.2682,0.2656,0.2631,0.2632,0.2513,0.2538,0.2523,0.249,0.2372,0.2367,0.2363,0.2349,0.2342,0.2335,0,0,0,0,0,0,0.289,0.2841,0.2842,0.2775,0.2739,0.2694,0.266,0.2659,0.2617,0.2619,0.2599,0.2588,0.2524,0.2501,0.2531,0.2422,0.2444,0.2436,0.2439,0.2431,0.2425,0.2431,0.2542,0,0,0,0,0,0.2881,0.2837,0.2797,0.2742,0.2724,0.2695,0.2669,0.2659,0.262,0.2605,0.2574,0.2536,0.249,0.246,0.2415,0.2344,0.2332,0.2314,0.2308,0.2303,0.2296,0.2255,0.2246,0.2346,0.2346,0.2346,0,0,0.286,0.2828,0.2802,0.2739,0.271,0.2664,0.2682,0.2634,0.2599,0.2597,0.2534,0.2511,0.2467,0.2399,0.2368,0.2378,0.2266,0.2298,0.2294,0.2289,0.225,0.224,0.2232,0.2343,0.2344,0.2344,0,0,0.2798,0.2771,0.2721,0.2692,0.2648,0.263,0.2618,0.2573,0.2558,0.2496,0.2493,0.2451,0.2373,0.2341,0.2314,0.2242,0.224,0.2228,0.2196,0.2157,0.2149,0.2142,0.2113,0.2104,0.2222,0.2222,0.2222,0,0.2778,0.271,0.2695,0.2646,0.2618,0.2616,0.2564,0.2536,0.248,0.2459,0.2472,0.2373,0.2343,0.2267,0.225,0.2229,0.2213,0.2232,0.2151,0.2144,0.2137,0.211,0.21,0.222,0.222,0.222,0.2221,0,0.2686,0.2639,0.2604,0.255,0.2518,0.2468,0.2445,0.2414,0.2407,0.2387,0.2323,0.2288,0.2235,0.2217,0.221,0.214,0.2147,0.2156,0.2177,0.2126,0.21,0.209,0.2218,0.2219,0.2219,0.2219,0,0,0.2614,0.2554,0.2541,0.2516,0.2468,0.243,0.238,0.233,0.2303,0.2265,0.2221,0.2155,0.2163,0.2133,0.2122,0.2088,0.203,0.2101,0.2099,0.2087,0.1948,0.194,0.1928,0.203,0.2028,0.2027,0.1951,0,0.2545,0.2456,0.2442,0.2363,0.2319,0.2316,0.2272,0.2237,0.2218,0.2176,0.2154,0.2107,0.2122,0.2104,0.207,0.2044,0.2002,0.205,0.1987,0.1985,0.1995,0.1915,0.1906,0.1836,0.1941,0.1939,0.1938,0,0.2453,0.2412,0.2329,0.2287,0.2268,0.2228,0.2181,0.2142,0.2102,0.209,0.2057,0.2051,0.1997,0.2024,0.1948,0.1982,0.1955,0.1939,0.1936,0.1927,0.1956,0.1901,0.1813,0.1802,0.1923,0.1924,0.1925,0,0.2405,0.2331,0.2271,0.225,0.22,0.2172,0.215,0.2112,0.2082,0.2041,0.2021,0.1974,0.1947,0.1911,0.1891,0.1912,0.1816,0.1842,0.1803,0.1803,0.178,0.1781,0.1684,0.1768,0.1768,0.1769,0.1769,0,0.2329,0.2277,0.2249,0.2212,0.2154,0.2139,0.2081,0.2059,0.2026,0.1984,0.198,0.194,0.1918,0.1875,0.1859,0.1798,0.1787,0.1774,0.177,0.1773,0.1774,0.1753,0.1756,0.1766,0.1766,0.1767,0.1768,0,0.2265,0.2244,0.2179,0.2137,0.2125,0.2084,0.2048,0.2011,0.1993,0.1939,0.1925,0.1895,0.1844,0.1822,0.1759,0.1749,0.1678,0.1679,0.1691,0.1689,0.1651,0.1654,0.1534,0.1517,0.1615,0.1614,0.1614,0,0.2216,0.2176,0.213,0.2102,0.2079,0.2034,0.2004,0.1987,0.1956,0.1908,0.1877,0.1826,0.1784,0.1703,0.1674,0.1626,0.1624,0.1585,0.1616,0.162,0.162,0.1621,0.1616,0.1579,0.1578,0.1577,0.1576,0,0.213,0.2122,0.2079,0.2033,0.1998,0.1961,0.1924,0.1901,0.1879,0.1844,0.1792,0.1759,0.1696,0.1644,0.1594,0.157,0.1568,0.1567,0.1555,0.1556,0.1564,0.1556,0.1673,0.1569,0.157,0.157,0.1571,0.1571,0.2069,0.2034,0.1996,0.1949,0.192,0.1886,0.1849,0.1826,0.1783,0.173,0.1723,0.1667,0.1628,0.1561,0.1535,0.149,0.1499,0.1482,0.1477,0.1473,0.1469,0.1574,0.1481,0.1481,0.1481,0.1481,0.1482,0,0.1981,0.1957,0.1914,0.1863,0.1826,0.183,0.179,0.1758,0.1709,0.1673,0.1632,0.1572,0.1523,0.1491,0.1441,0.1411,0.1409,0.1398,0.1398,0.1392,0.1465,0.1479,0.14,0.14,0.14,0.14,0.14,0.1401,0.193,0.1869,0.1857,0.1781,0.1758,0.1703,0.168,0.1648,0.1619,0.1552,0.1511,0.1492,0.1457,0.1405,0.1359,0.1351,0.1331,0.132,0.1312,0.1379,0.1387,0.1395,0.1408,0.1316,0.1316,0.1242,0.1242,0.1241]},{"header":{"parameterUnit":"m.s-1","parameterCategory":1,"la1":30.2991,"la2":30.254,"lo1":-89.0895,"lo2":-89.0444,"dy":0.0017,"dx":0.0017,"nx":28,"ny":28,"refTime":"2023-10-17T03:00:00:Z","depth":0,"parameterNumber":3,"parameterNumberName":"V-component_of_WINDS"},"data":[0,0,0,0,0,0,0,0,0,0,0,0,0,0,0,0,0,0,0,0,0,0,0,0,0,0,0,0,0,0,0,0,0,0,0,0,0,0,0,0,0,0,0,0,0,0,0,0,0,0,0,0,0,0,0,0,0,0,-4.8119,-4.8121,0,-4.8241,-4.8243,-4.8244,-4.8168,-4.8165,-4.8161,-4.8158,-4.8277,-4.8284,-4.829,0,0,0,0,0,0,0,0,0,0,0,0,0,-4.7814,-4.782,-4.8119,-4.8121,-4.8122,-4.8241,-4.8243,-4.8244,-4.8169,-4.8164,-4.816,-4.8156,-4.8275,-4.8283,-4.8291,0,0,0,0,0,0,0,0,0,0,0,0,0,-4.7942,-4.7822,-4.8119,-4.8099,-4.8098,-4.8241,-4.8243,-4.8245,-4.817,-4.8164,-4.8159,-4.8154,-4.8273,-4.8282,-4.8292,-4.8459,0,0,-4.8322,-4.8326,0,0,0,0,0,0,0,0,-4.7935,-4.7954,-4.81,-4.8101,-4.81,-4.8184,-4.8179,-4.8317,-4.8171,-4.8142,-4.8158,-4.8151,-4.825,-4.8262,-4.8296,-4.8465,-4.847,-4.8322,-4.8328,-4.8333,-4.8335,0,0,0,0,0,0,0,-4.7926,-4.7948,-4.8167,-4.8102,-4.8102,-4.8082,-4.8094,-4.8205,-4.8225,-4.8145,-4.8139,-4.8155,-4.8249,-4.8287,-4.8298,-4.8472,-4.8322,-4.8331,-4.8337,-4.8341,-4.8782,-4.8787,0,0,0,0,0,0,-4.792,-4.7941,-4.8163,-4.8171,-4.8003,-4.8092,-4.8105,-4.8163,-4.8223,-4.8228,-4.816,-4.8151,-4.8273,-4.8287,-4.8302,-4.8502,-4.8332,-4.8342,-4.8347,-4.8776,-4.8783,-4.8789,0,0,0,0,0,0,-4.7914,-4.7941,-4.8158,-4.8055,-4.8081,-4.8103,-4.8167,-4.8168,-4.8205,-4.8235,-4.8237,-4.8195,-4.8269,-4.8288,-4.8421,-4.8505,-4.8346,-4.8355,-4.8769,-4.8778,-4.8786,-4.8902,0,0,0,0,0,0,-4.7905,-4.7939,-4.8004,-4.8057,-4.8087,-4.8277,-4.8173,-4.8174,-4.8223,-4.8213,-4.8269,-4.8272,-4.8266,-4.8407,-4.843,-4.8515,-4.8363,-4.8762,-4.8773,-4.8784,-4.8891,-4.8914,-4.8933,0,0,0,0,0,-4.7895,-4.8031,-4.8008,-4.8035,-4.8169,-4.8282,-4.8299,-4.8291,-4.823,-4.8295,-4.8314,-4.8271,-4.8492,-4.8421,-4.8447,-4.8536,-4.8756,-4.877,-4.8783,-4.8881,-4.8909,-4.8933,0,0,0,0,0,0,-4.7986,-4.8037,-4.8012,-4.817,-4.8223,-4.8269,-4.8351,-4.8321,-4.839,-4.8378,-4.8363,-4.8376,-4.8514,-4.8538,-4.8458,-4.87,-4.8614,-4.8633,-4.868,-4.8707,-4.8728,-4.8719,-4.8371,0,0,0,0,0,-4.8025,-4.8114,-4.8153,-4.8288,-4.8316,-4.833,-4.8378,-4.8368,-4.842,-4.8442,-4.847,-4.8521,-4.8602,-4.8655,-4.8731,-4.8893,-4.8904,-4.8967,-4.8989,-4.9006,-4.9023,-4.9109,-4.9137,-4.8833,-4.8833,-4.8832,0,0,-4.8105,-4.8144,-4.8201,-4.8308,-4.8347,-4.8438,-4.8349,-4.8449,-4.8515,-4.8456,-4.8583,-4.8606,-4.8662,-4.881,-4.8876,-4.8834,-4.9109,-4.9023,-4.9036,-4.9044,-4.9125,-4.9154,-4.918,-4.8842,-4.884,-4.8839,0,0,-4.8298,-4.8337,-4.8454,-4.8496,-4.8557,-4.8564,-4.8592,-4.8644,-4.8657,-4.8785,-4.8742,-4.882,-4.896,-4.9001,-4.9041,-4.9249,-4.9211,-4.9274,-4.9385,-4.9469,-4.9493,-4.9514,-4.9588,-4.9614,-4.929,-4.929,-4.9291,0,-4.839,-4.8527,-4.8517,-4.8621,-4.8669,-4.8621,-4.8738,-4.8778,-4.886,-4.8893,-4.8844,-4.9019,-4.9053,-4.9209,-4.926,-4.9294,-4.9324,-4.9268,-4.9491,-4.9512,-4.9531,-4.9601,-4.9629,-4.9298,-4.9297,-4.9296,-4.9295,0,-4.8637,-4.8733,-4.8819,-4.8902,-4.8959,-4.9069,-4.9073,-4.9132,-4.9116,-4.9128,-4.9257,-4.9297,-4.938,-4.9416,-4.9401,-4.957,-4.9542,-4.9493,-4.9406,-4.9568,-4.9633,-4.966,-4.9308,-4.9305,-4.9303,-4.9301,0,0,-4.8892,-4.8967,-4.8999,-4.9036,-4.9099,-4.9172,-4.9279,-4.9361,-4.9411,-4.9469,-4.9557,-4.9676,-4.9631,-4.9676,-4.9664,-4.9739,-4.99,-4.968,-4.9681,-4.9719,-5.0088,-5.0125,-5.0156,-4.9875,-4.9881,-4.9885,-5.0083,0,-4.9088,-4.9277,-4.9271,-4.9446,-4.9533,-4.9488,-4.9581,-4.9629,-4.9643,-4.9717,-4.9731,-4.9816,-4.975,-4.9777,-4.9848,-4.9866,-4.9974,-4.9851,-4.9956,-4.996,-4.9944,-5.0191,-5.023,-5.0416,-5.0109,-5.0113,-5.0116,0,-4.9344,-4.9412,-4.9597,-4.9647,-4.9683,-4.9767,-4.9842,-4.9914,-4.9966,-4.9971,-5.0021,-4.9998,-5.0103,-5.0014,-5.0158,-5.0075,-5.0117,-5.0132,-5.0139,-5.0148,-5.0048,-5.0207,-5.0475,-5.0503,-5.0157,-5.0153,-5.015,0,-4.9511,-4.9649,-4.9777,-4.9809,-4.9871,-4.9931,-4.9959,-5.0006,-5.0056,-5.012,-5.0152,-5.0227,-5.0269,-5.0327,-5.0323,-5.0258,-5.047,-5.038,-5.0475,-5.0475,-5.0522,-5.0519,-5.0801,-5.0549,-5.0549,-5.0548,-5.0548,0,-4.9732,-4.9846,-4.9853,-4.9932,-5.0058,-5.0048,-5.0172,-5.0194,-5.0236,-5.0317,-5.0281,-5.0357,-5.0348,-5.0424,-5.0422,-5.0541,-5.056,-5.0565,-5.0563,-5.0569,-5.0568,-5.0597,-5.0584,-5.0556,-5.0554,-5.0553,-5.0551,0,-4.994,-4.9949,-5.0086,-5.0133,-5.0147,-5.0238,-5.0278,-5.0351,-5.0362,-5.0464,-5.0487,-5.0503,-5.0591,-5.0593,-5.0692,-5.0691,-5.0837,-5.082,-5.082,-5.0817,-5.0912,-5.0903,-5.1222,-5.1263,-5.0985,-5.0987,-5.099,0,-5.0081,-5.0168,-5.0225,-5.0277,-5.031,-5.0394,-5.0445,-5.0438,-5.0492,-5.0558,-5.0623,-5.0708,-5.0775,-5.0916,-5.0935,-5.1011,-5.0995,-5.1102,-5.1006,-5.1009,-5.0997,-5.0992,-5.1,-5.1121,-5.1124,-5.1126,-5.1128,0,-5.0329,-5.0329,-5.0405,-5.0483,-5.0545,-5.0605,-5.0661,-5.0705,-5.0704,-5.0767,-5.0856,-5.0909,-5.1011,-5.1094,-5.1168,-5.1193,-5.1161,-5.1158,-5.1184,-5.1191,-5.1187,-5.119,-5.0871,-5.1151,-5.1149,-5.1147,-5.1146,-5.1145,-5.0508,-5.0583,-5.0635,-5.072,-5.0762,-5.0815,-5.0886,-5.0906,-5.0981,-5.1065,-5.1056,-5.1155,-5.1203,-5.1299,-5.1331,-5.1407,-5.137,-5.1408,-5.1418,-5.1427,-5.1438,-5.1175,-5.142,-5.142,-5.1419,-5.1419,-5.1418,0,-5.0754,-5.0785,-5.0864,-5.0944,-5.1011,-5.0975,-5.1035,-5.1092,-5.1181,-5.123,-5.1297,-5.14,-5.148,-5.1506,-5.1583,-5.1639,-5.1626,-5.166,-5.1656,-5.1662,-5.1466,-5.1436,-5.1669,-5.1669,-5.1669,-5.1669,-5.1669,-5.1669,-5.089,-5.1016,-5.1022,-5.1166,-5.1196,-5.1295,-5.1332,-5.138,-5.1418,-5.1535,-5.1603,-5.1619,-5.1658,-5.1738,-5.181,-5.1815,-5.1845,-5.1885,-5.1884,-5.1701,-5.1676,-5.1652,-5.1623,-5.1892,-5.1892,-5.2073,-5.2075,-5.2076]}]]